Regional Weather Roundup
Issued by NWS

Home | Current Version | Previous Version | Text Only | Print | Product List | Glossary On
Versions: 1 2 3 4 5 6 7 8 9 10 11 12 13 14 15 16 17 18 19 20 21 22 23 24 25 26 27 28 29 30 31 32 33 34 35 36 37 38 39 40 41 42 43 44 45 46 47 48 49 50
000
ASUS43 KIND 211209
RWRIN

WEATHER ROUNDUP FOR INDIANA
NATIONAL WEATHER SERVICE INDIANAPOLIS IN
800 AM EDT THU AUG 21 2014

NOTE: "FAIR" INDICATES FEW OR NO CLOUDS BELOW 12,000 FEET WITH NO
SIGNIFICANT WEATHER AND/OR OBSTRUCTIONS TO VISIBILITY.

* - STATION DOES NOT REPORT WEATHER SUCH AS PRECIPITATION OR FOG.

+ - STATION NOT QUALITY CONTROLLED BY THE NATIONAL WEATHER SERVICE.
    USE DATA WITH CAUTION...ESPECIALLY DEWPOINT AND RELATIVE
    HUMIDITY OBSERVATIONS.

INZ001>003-010>013-019-020-211300-
NORTHWEST INDIANA

CITY           SKY/WX    TMP DP  RH WIND       PRES   REMARKS
GARY /AIRPORT/ LGT RAIN  72  70  94 VRB5      29.95S
KNOX *+        CLOUDY    69  66  92 W5        29.97R
LA PORTE +     TSTM      68  68 100 SW8       29.99R
6HR MIN TEMP:  67; 6HR MAX TEMP:  70; 6HR PCP:  0.07;

MICHIGAN CITY+ CLOUDY    68  68 100 SW8       29.97R
MONTICELLO +   CLOUDY    71  69  95 SE3       29.97R
RENSSELAER +   CLOUDY    70  70 100 CALM      29.97R THUNDER
VALPARAISO     CLOUDY    70  69  97 SW6       29.98R
6HR MIN TEMP:  68; 6HR MAX TEMP:  70; 6HR PCP:  0.45;


$$

LMZ046-743>745-211300-
SOUTHERN LAKE MICHIGAN

STATION/POSITION TIME  TEMP WIND        PRES
                       AIR  DIR/SP/G
                 (UTC) (F)  (DEG/KT/KT) (MB)
MICHIGAN CITY    1200   71  170/ 12/ 16   N/A

$$

INZ004-005-014>016-021>024-211300-
NORTH CENTRAL INDIANA

CITY           SKY/WX    TMP DP  RH WIND       PRES   REMARKS
ELKHART        PTSUNNY   68  68 100 CALM      29.96
GOSHEN         PTSUNNY   71  67  87 S5        29.96F
6HR MIN TEMP:  68; 6HR MAX TEMP:  73;

LOGANSPORT +   RAIN      68  66  94 S3        29.99R
PERU/GRISSOM   TSTM      70  70 100 S15       29.99R VSB 1
6HR MIN TEMP:  69; 6HR MAX TEMP:  70; 6HR PCP:  0.40;

ROCHESTER +    TSTM      72  72 100 CALM      29.96F
SOUTH BEND     CLOUDY    72  66  81 S3        29.95F
6HR MIN TEMP:  68; 6HR MAX TEMP:  73;

WARSAW +       PTSUNNY   70  68  94 SW3       29.98R

$$

INZ006>009-017-018-025>027-211300-
NORTHEAST INDIANA

CITY           SKY/WX    TMP DP  RH WIND       PRES   REMARKS
ANGOLA *+      SUNNY     72  63  73 CALM      29.97F
AUBURN +       SUNNY     70  66  88 CALM      29.98F
FORT WAYNE     PTSUNNY   71  67  87 S5        29.99R
6HR MIN TEMP:  69; 6HR MAX TEMP:  71; 6HR PCP: TRACE;

HUNTINGTON +   MOSUNNY   69  68  97 CALM      29.98S
6HR MIN TEMP:  68; 6HR MAX TEMP:  70; 6HR PCP:  0.01;


$$

INZ028-029-035-036-043>045-051>053-211300-
WEST CENTRAL INDIANA

CITY           SKY/WX    TMP DP  RH WIND       PRES   REMARKS
GREENCASTLE +  CLOUDY    68  66  94 SE5       30.01S
LAFAYETTE      MOCLDY    70  69  97 SE5       29.97R
6HR MIN TEMP:  69; 6HR MAX TEMP:  70;

TERRE HAUTE    PTCLDY    68  66  93 SE3       29.98S
6HR MIN TEMP:  68; 6HR MAX TEMP:  73; 6HR PCP:  0.01;


$$

INZ030>032-037>040-046>048-054>057-064-065-211300-
CENTRAL INDIANA

CITY           SKY/WX    TMP DP  RH WIND       PRES   REMARKS
CP ATTERBURY + PTSUNNY   68  68 100 CALM      30.04S THUNDER FOG
FRANKFORT +    MOCLDY   N/A N/A N/A SE3       30.01R HAZE
GREENWOOD *+   PTSUNNY   73  72  94 W6        30.02
INDIANAPOLIS   TSTM      71  66  84 SW9       29.98
6HR MIN TEMP:  70; 6HR MAX TEMP:  73; 6HR PCP:  0.09;

-EAGLE CREEK   CLOUDY    70  66  87 SW5       30.00F
6HR MIN TEMP:  69; 6HR MAX TEMP:  73; 6HR PCP:  0.25;

KOKOMO *+      PTSUNNY   70  66  88 SW5       30.01R THUNDER
MARION +       MOSUNNY   69  68  97 S3        29.99S
MT COMFORT *+  MOSUNNY   72  72 100 W7        30.03R
SHELBYVILLE    LGT RAIN  73  50  44 CALM      30.03R
6HR MIN TEMP:  70; 6HR MAX TEMP:  74; 6HR PCP:  0.02;

ZIONSVILLE +   CLOUDY    71  67  87 SW6       30.02R
6HR MIN TEMP:  69; 6HR MAX TEMP:  71; 6HR PCP:  0.18;


$$

INZ033-034-041-042-049-050-058-059-211300-
EAST CENTRAL INDIANA

CITY           SKY/WX    TMP DP  RH WIND       PRES   REMARKS
MUNCIE         MOSUNNY   71  68  90 S8        30.00S
6HR MIN TEMP:  70; 6HR MAX TEMP:  72; 6HR PCP:  0.05;


$$

INZ060-061-067>069-081>083-085>088-211300-
SOUTHWEST INDIANA

CITY           SKY/WX    TMP DP  RH WIND       PRES   REMARKS
EVANSVILLE     CLEAR     73  71  93 SW3       30.03R
6HR MIN TEMP:  73; 6HR MAX TEMP:  77; 6HR PCP:  0.02;

WASHINGTON +   CLEAR     73  71  93 SW7       30.00R
6HR MIN TEMP:  69; 6HR MAX TEMP:  74;


$$

INZ062-063-066-070>080-084-089>092-211300-
SOUTH CENTRAL AND SOUTHEAST INDIANA

CITY           SKY/WX    TMP DP  RH WIND       PRES   REMARKS
BEDFORD +      PTCLDY    70  66  88 S3        30.02R
BLOOMINGTON    PTCLDY    71  67  87 VRB3      30.02R
6HR MIN TEMP:  70; 6HR MAX TEMP:  74;

NORTH VERNON + MOSUNNY   72  72 100 CALM      30.04
SEYMOUR +      MOSUNNY   66  59  77 S5        30.02

$$



USA.gov is the U.S. government's official web portal to all federal, state and local government web resources and services.